Weather History for Tracy, MN

Change the Weather History Date:

Thursday, December 6, 2012

  Actual Average (KMML) Record (KMML)
Temperature  
Mean Temperature 38 °F -  
Max Temperature 49 °F 28 °F 52 °F (1963)
Min Temperature 27 °F 10 °F -17 °F (1972)
Degree Days  
Heating Degree Days 27    
Moisture  
Dew Point 25 °F    
Average Humidity 56    
Maximum Humidity 72    
Minimum Humidity 36    
Precipitation  
Precipitation 0.00 in - - ()
Sea Level Pressure  
Sea Level Pressure 29.88 in    
Wind  
Wind Speed 15 mph (NW)    
Max Wind Speed 25 mph    
Max Gust Speed 31 mph    
Visibility 10 miles    
Events      
Averages and records for this station are not official NWS values.
T = Trace of Precipitation, MM = Missing Value Source: NWS Daily Summary

Daily Weather History Graph

Daily Weather History Graph

Search for Another Location

Airport:

Trip Planner

Search our weather history database for the weather conditions in past years. The results will help you decide how hot, cold, wet, or windy it might be!

Date:

Astronomy

Dec. 06, 2012 Rise Set
Actual Time 7:43 AM CST 4:43 PM CST
Civil Twilight 7:10 AM CST 5:16 PM CST
Nautical Twilight 6:34 AM CST 5:52 PM CST
Astronomical Twilight 5:59 AM CST 6:27 PM CST
Moon No Moon Rise 12:24 PM CST (12/6)
Length of Visible Light 10h 05m
Length of Day
8h 59m
Waning Gibbous, 49% of the Moon is Illuminated
Dec 6
Waning Gibbous
Dec 13
New
Dec 19
First Quarter
Dec 28
Full
Jan 4
Last Quarter

Hourly Weather History & Observations

Time (CST) Temp. Windchill Dew Point Humidity Pressure Visibility Wind Dir Wind Speed Gust Speed Precip Events Conditions
12:15 AM 49.1 °F - 23.7 °F 37% 29.72 in 10.0 mi SSW 23.0 mph 31.1 mph N/A   Mostly Cloudy
12:35 AM 49.1 °F - 23.5 °F 37% 29.71 in 10.0 mi SSW 23.0 mph 31.1 mph N/A   Overcast
12:56 AM 49.1 °F - 23.2 °F 36% 29.71 in 10.0 mi SSW 25.3 mph 31.1 mph N/A   Overcast
1:15 AM 49.1 °F - 23.0 °F 36% 29.72 in 10.0 mi SSW 20.7 mph 28.8 mph N/A   Overcast
1:36 AM 49.1 °F - 23.0 °F 36% 29.72 in 10.0 mi SSW 21.9 mph 27.6 mph N/A   Overcast
1:55 AM 48.6 °F - 23.0 °F 37% 29.72 in 10.0 mi SSW 19.6 mph 28.8 mph N/A   Overcast
2:15 AM 48.7 °F - 23.0 °F 36% 29.71 in 10.0 mi SSW 21.9 mph 29.9 mph N/A   Overcast
2:36 AM 48.6 °F - 23.0 °F 37% 29.72 in 10.0 mi SSW 19.6 mph 26.5 mph N/A   Overcast
2:55 AM 48.6 °F - 23.5 °F 37% 29.73 in 10.0 mi SW 19.6 mph 23.0 mph N/A   Light Drizzle
3:16 AM 48.2 °F - 24.3 °F 39% 29.75 in 10.0 mi SW 19.6 mph - N/A   Overcast
3:35 AM 47.3 °F - 25.3 °F 42% 29.75 in 10.0 mi SW 18.4 mph - N/A   Overcast
3:55 AM 47.1 °F - 25.5 °F 43% 29.75 in 10.0 mi WSW 11.5 mph - N/A   Overcast
4:16 AM 46.6 °F - 25.7 °F 44% 29.77 in 10.0 mi SW 10.4 mph - N/A   Overcast
4:35 AM 45.9 °F 41.2 °F 25.9 °F 46% 29.77 in 10.0 mi WSW 9.2 mph - N/A   Overcast
4:56 AM 46.4 °F 43.5 °F 25.9 °F 45% 29.79 in 10.0 mi West 5.8 mph - N/A   Overcast
5:15 AM 46.2 °F 40.1 °F 29.7 °F 53% 29.79 in 10.0 mi NW 13.8 mph - N/A   Overcast
5:36 AM 45.3 °F 41.1 °F 31.1 °F 58% 29.79 in 10.0 mi NW 8.1 mph - N/A   Overcast
5:55 AM 44.2 °F 40.3 °F 31.6 °F 61% 29.79 in 10.0 mi NNW 6.9 mph - N/A   Mostly Cloudy
6:15 AM 43.2 °F 38.4 °F 30.7 °F 62% 29.81 in 10.0 mi NW 8.1 mph - N/A   Scattered Clouds
6:36 AM 42.6 °F 36.8 °F 29.8 °F 61% 29.83 in 10.0 mi NW 10.4 mph - N/A   Clear
6:55 AM 42.3 °F 36.8 °F 29.3 °F 60% 29.84 in 10.0 mi NW 9.2 mph - N/A   Scattered Clouds
7:16 AM 41.5 °F 37.1 °F 29.3 °F 62% 29.85 in 10.0 mi NW 6.9 mph - N/A   Scattered Clouds
7:36 AM 41.4 °F 33.0 °F 27.5 °F 58% 29.85 in 10.0 mi NW 17.3 mph 20.7 mph N/A   Clear
7:55 AM 40.8 °F 33.3 °F 26.6 °F 57% 29.87 in 10.0 mi NW 13.8 mph 19.6 mph N/A   Clear
8:16 AM 39.4 °F 31.4 °F 26.4 °F 60% 29.87 in 10.0 mi NW 13.8 mph 18.4 mph N/A   Clear
8:35 AM 39.2 °F 30.5 °F 26.6 °F 61% 29.88 in 10.0 mi NNW 16.1 mph 19.6 mph N/A   Clear
8:55 AM 38.7 °F 30.1 °F 27.0 °F 63% 29.89 in 10.0 mi NW 15.0 mph - N/A   Clear
9:16 AM 37.9 °F 30.9 °F 27.0 °F 65% 29.89 in 10.0 mi NNW 10.4 mph - N/A   Clear
9:35 AM 39.0 °F 31.8 °F 27.7 °F 64% 29.90 in 10.0 mi NW 11.5 mph - N/A   Clear
9:56 AM 39.2 °F 32.0 °F 27.5 °F 63% 29.90 in 10.0 mi NW 11.5 mph - N/A   Clear
10:16 AM 41.0 °F 32.8 °F 28.4 °F 61% 29.90 in 10.0 mi NW 16.1 mph 23.0 mph N/A   Clear
10:35 AM 41.9 °F 33.4 °F 28.6 °F 59% 29.91 in 10.0 mi NW 18.4 mph 24.2 mph N/A   Clear
10:56 AM 42.3 °F 34.4 °F 28.6 °F 58% 29.91 in 10.0 mi NW 16.1 mph 21.9 mph N/A   Clear
11:15 AM 42.4 °F 35.0 °F 28.6 °F 58% 29.91 in 10.0 mi NNW 15.0 mph 21.9 mph N/A   Clear
11:36 AM 43.2 °F 35.6 °F 28.9 °F 57% 29.91 in 10.0 mi NW 16.1 mph 20.7 mph N/A   Clear
11:55 AM 44.2 °F 37.6 °F 29.1 °F 55% 29.90 in 10.0 mi NNW 13.8 mph - N/A   Clear
12:16 PM 44.4 °F 37.5 °F 28.2 °F 53% 29.91 in 10.0 mi NNW 15.0 mph 24.2 mph N/A   Clear
12:35 PM 44.6 °F 37.4 °F 28.2 °F 53% 29.91 in 10.0 mi NW 16.1 mph - N/A   Clear
12:56 PM 43.3 °F 38.6 °F 28.2 °F 55% 29.91 in 10.0 mi NNW 8.1 mph - N/A   Clear
1:16 PM 43.3 °F 37.7 °F 28.4 °F 56% 29.90 in 10.0 mi NW 10.4 mph - N/A   Mostly Cloudy
1:35 PM 44.1 °F 38.6 °F 28.6 °F 55% 29.90 in 10.0 mi NNW 10.4 mph - N/A   Mostly Cloudy
1:56 PM 44.1 °F 39.5 °F 28.6 °F 55% 29.89 in 10.0 mi NNW 8.1 mph - N/A   Mostly Cloudy
2:16 PM 44.1 °F 37.4 °F 28.4 °F 54% 29.90 in 10.0 mi NW 13.8 mph - N/A   Mostly Cloudy
2:35 PM 44.2 °F 38.4 °F 27.9 °F 53% 29.91 in 10.0 mi NW 11.5 mph - N/A   Mostly Cloudy
2:56 PM 43.3 °F 37.7 °F 27.5 °F 54% 29.92 in 10.0 mi NW 10.4 mph - N/A   Mostly Cloudy
3:16 PM 43.2 °F 36.6 °F 27.5 °F 54% 29.92 in 10.0 mi WNW 12.7 mph - N/A   Overcast
3:36 PM 43.3 °F 36.8 °F 28.0 °F 55% 29.94 in 10.0 mi NW 12.7 mph 18.4 mph N/A   Mostly Cloudy
3:55 PM 43.5 °F 36.7 °F 27.0 °F 52% 29.93 in 10.0 mi NW 13.8 mph 21.9 mph N/A   Scattered Clouds
4:16 PM 42.1 °F 34.5 °F 25.7 °F 52% 29.94 in 10.0 mi NW 15.0 mph - N/A   Clear
4:35 PM 41.2 °F 34.5 °F 26.1 °F 55% 29.94 in 10.0 mi NW 11.5 mph - N/A   Clear
4:56 PM 40.3 °F 32.6 °F 25.5 °F 56% 29.95 in 10.0 mi NW 13.8 mph - N/A   Clear
5:16 PM 39.6 °F 32.5 °F 25.5 °F 57% 29.95 in 10.0 mi NW 11.5 mph - N/A   Clear
5:35 PM 38.8 °F 31.6 °F 25.0 °F 58% 29.96 in 10.0 mi NNW 11.5 mph - N/A   Clear
5:56 PM 37.2 °F 30.0 °F 24.1 °F 59% 29.96 in 10.0 mi NNW 10.4 mph - N/A   Clear
6:16 PM 34.7 °F 28.1 °F 23.9 °F 65% 29.96 in 10.0 mi North 8.1 mph - N/A   Clear
6:36 PM 33.6 °F 26.8 °F 23.4 °F 66% 29.97 in 10.0 mi NNW 8.1 mph - N/A   Scattered Clouds
6:55 PM 33.1 °F 26.1 °F 23.0 °F 66% 29.97 in 10.0 mi NNW 8.1 mph - N/A   Scattered Clouds
7:16 PM 33.3 °F 25.7 °F 22.6 °F 65% 29.98 in 10.0 mi NNW 9.2 mph - N/A   Clear
7:35 PM 33.1 °F 26.1 °F 22.1 °F 64% 29.99 in 10.0 mi NNW 8.1 mph - N/A   Clear
7:56 PM 32.5 °F 25.5 °F 21.6 °F 64% 29.99 in 10.0 mi NNW 8.1 mph - N/A   Clear
8:36 PM 31.5 °F 25.8 °F 20.7 °F 64% 29.99 in 10.0 mi North 5.8 mph - N/A   Clear
8:55 PM 31.1 °F 24.5 °F 20.3 °F 64% 30.00 in 10.0 mi North 6.9 mph - N/A   Scattered Clouds
9:16 PM 30.9 °F 25.2 °F 20.3 °F 65% 30.00 in 10.0 mi North 5.8 mph - N/A   Scattered Clouds
9:35 PM 30.2 °F 25.4 °F 19.9 °F 66% 30.00 in 10.0 mi NNW 4.6 mph - N/A   Scattered Clouds
9:56 PM 29.3 °F 24.3 °F 19.6 °F 67% 30.01 in 10.0 mi North 4.6 mph - N/A   Scattered Clouds
10:15 PM 28.4 °F 24.6 °F 19.4 °F 69% 30.00 in 10.0 mi NNW 3.5 mph - N/A   Scattered Clouds
10:36 PM 27.7 °F - 18.9 °F 69% 30.01 in 10.0 mi Calm Calm - N/A   Clear
10:55 PM 27.5 °F - 19.0 °F 71% 30.00 in 10.0 mi Calm Calm - N/A   Clear
11:16 PM 27.5 °F - 19.0 °F 71% 30.01 in 10.0 mi Calm Calm - N/A   Scattered Clouds
11:35 PM 27.3 °F 20.9 °F 19.0 °F 71% 30.01 in 10.0 mi NW 5.8 mph - N/A   Mostly Cloudy
11:56 PM 27.1 °F 21.8 °F 19.2 °F 72% 30.01 in 10.0 mi NW 4.6 mph - N/A   Overcast